Lid_Strength_Index
5 5 5 7 10 7 11 10 14 13 11 8 6 6 6 6 6 5 4 3 3 2 2 2 1 2 1 1 1 0 0 -0
5 5 5 6 5 10 10 14 14 13 15 12 9 8 6 6 6 5 4 4 3 3 3 1 1 1 1 0 1 0 -0 -0
6 7 7 7 8 8 8 9 13 13 14 8 8 7 7 6 5 5 5 5 4 2 2 3 1 1 1 1 1 0 0 -0
8 5 5 6 7 7 11 12 9 10 13 8 7 6 6 6 5 4 4 4 3 3 2 2 2 2 2 1 1 0 -0 -0
10 7 6 7 6 6 7 7 9 11 15 7 6 6 5 6 5 5 5 4 3 3 3 3 2 2 1 1 1 1 0 0
12 9 7 8 7 6 7 9 9 9 12 9 8 8 7 6 5 5 5 4 4 4 3 3 2 2 2 2 1 0 1 1
8 8 7 7 7 7 8 7 9 8 10 9 8 8 7 6 6 6 5 5 4 4 4 3 3 2 2 1 1 1 1 1
11 8 7 8 7 7 7 7 7 7 8 8 6 6 7 7 6 6 6 5 4 4 4 3 3 2 2 2 1 1 1 1
11 8 8 10 8 7 7 6 7 9 10 8 7 7 7 7 7 6 6 5 4 4 3 3 2 2 2 2 1 1 1 1
11 11 13 10 8 6 8 7 6 7 7 8 7 6 6 5 6 6 5 5 5 5 5 3 2 2 1 1 1 1 1 1
14 16 12 9 7 8 8 10 6 7 7 7 6 6 6 5 4 4 4 4 5 5 6 6 5 4 2 2 1 1 2 1
9 13 17 11 6 5 5 11 6 6 6 7 7 9 8 5 4 4 4 5 6 7 7 6 7 6 5 4 3 3 2 1
10 12 13 7 6 4 11 11 5 5 6 6 8 6 5 4 4 3 3 4 4 5 7 7 7 6 7 6 7 4 3 2
9 11 17 5 6 9 7 5 4 5 5 6 5 5 4 4 3 3 3 4 4 5 5 4 5 6 7 7 6 5 4 3
9 10 5 4 5 4 4 4 4 4 4 4 5 5 5 5 4 3 3 4 4 4 5 4 4 5 6 5 4 5 5 5
8 6 6 5 4 3 3 3 3 3 3 3 4 4 4 4 4 3 3 4 4 5 5 5 4 4 4 4 3 4 4 4
7 6 5 4 4 3 3 3 3 3 3 3 3 4 4 4 3 3 2 2 3 3 4 4 4 4 4 4 4 4 4 4
8 5 5 5 4 3 3 3 3 3 4 3 3 4 3 4 3 2 2 3 3 3 3 3 3 4 3 3 3 4 4 5
5 3 4 3 3 3 3 3 3 3 3 3 3 3 3 3 2 3 2 2 2 3 4 3 4 4 4 4 4 4 5 5